Location: Shoshoni
(43.2355°N, 108.1106°W)
Time: 12:01:48
(UTC-07:00)

Tiangong 2 - Visible Passes

Search period start: 19 January 2018 00:00
Search period end: 29 January 2018 00:00
Orbit: 384 x 390 km, 42.8° (Epoch: 18 January)

Date Brightness Start Highest point End Pass type
(mag) Time Alt. Az. Time Alt. Az. Time Alt. Az.
19 Jan 3.6 05:20:34 19° SE 05:20:34 19° SE 05:22:38 10° ESE visible
19 Jan 1.5 06:53:34 10° WSW 06:56:43 62° SSE 06:59:53 10° E visible
20 Jan 2.0 05:57:12 34° SSW 05:58:05 44° SSE 06:01:09 10° E visible
21 Jan 4.2 05:01:26 16° ESE 05:01:26 16° ESE 05:02:19 10° E visible
21 Jan 1.1 06:33:42 17° WSW 06:36:04 78° S 06:39:15 10° E visible
22 Jan 1.7 05:37:50 54° ESE 05:37:50 54° ESE 05:40:32 10° E visible
23 Jan 1.0 06:14:09 34° W 06:15:24 85° S 06:18:36 10° E visible
24 Jan 3.1 05:18:09 29° E 05:18:09 29° E 05:19:51 10° E visible
24 Jan 1.2 06:50:25 11° W 06:53:26 68° SSW 06:56:37 10° ESE visible
25 Jan 0.9 05:54:23 69° WSW 05:54:42 81° S 05:57:53 10° E visible
26 Jan 4.2 04:58:21 16° E 04:58:21 16° E 04:59:08 10° E visible
26 Jan 1.6 06:30:37 19° W 06:32:40 50° SSW 06:35:46 10° ESE visible
27 Jan 1.8 05:34:35 50° SE 05:34:35 50° SE 05:37:07 10° ESE visible
28 Jan 2.1 06:10:51 26° WSW 06:11:50 33° SSW 06:14:44 10° SE visible
